GFSCGP_500_spd_000.txt.gz
Wind_Speed
2 3 2 4 6 5 5 6 5 4 4 6 7 10 12 14 17 18 19 21 24 24 24 27 28 29 32 34 34 36 39 39 41 44 46 46 48 49 49 51 52 54 57 58
2 1 2 3 4 6 7 8 7 10 8 6 9 12 14 16 19 21 22 24 24 25 26 27 30 30 31 31 32 37 40 43 47 48 48 50 52 52 52 53 52 54 55 56
6 7 6 7 8 10 9 9 9 11 14 11 13 16 16 17 18 19 22 24 26 25 26 30 30 29 33 34 37 41 44 46 53 53 54 55 54 54 55 55 55 55 54 56
9 11 11 11 11 11 14 14 13 15 14 13 16 19 19 21 24 24 26 28 27 28 30 32 30 33 31 36 41 42 44 51 53 55 56 55 55 54 55 55 56 55 57 58
12 14 17 17 15 15 17 18 17 17 16 15 17 20 22 25 27 29 31 32 32 32 32 31 33 35 38 43 45 47 50 53 53 54 55 55 57 58 58 57 59 61 62 64
16 17 19 20 19 18 19 20 19 18 18 18 21 23 25 28 31 35 34 35 33 34 33 36 38 40 43 45 46 50 51 50 53 54 56 58 58 59 60 62 63 64 66 67
20 20 21 21 22 20 20 20 18 17 19 22 24 27 29 31 33 34 34 35 37 36 37 38 39 43 45 47 48 51 52 53 54 57 59 59 61 65 68 70 71 72 72 71
17 18 19 19 19 18 16 14 17 21 23 25 29 31 31 31 35 37 38 39 40 40 41 42 44 46 47 49 51 53 54 54 59 60 62 63 65 68 72 74 73 74 77 80
12 13 14 14 14 16 16 17 20 24 27 27 28 28 31 33 36 38 39 41 42 43 44 46 46 47 49 52 53 57 60 58 62 66 67 66 69 71 76 78 80 82 84 84
11 11 11 12 15 17 19 23 26 28 32 32 31 22 29 36 38 36 37 39 41 42 43 44 45 46 50 53 55 57 59 62 65 69 74 76 79 83 83 85 87 88 89 89
15 16 15 17 19 22 24 26 29 30 31 33 36 30 31 33 33 33 33 35 39 42 44 43 45 48 54 53 58 62 64 67 68 71 73 74 76 81 85 87 89 91 90 88
17 20 21 21 22 24 24 26 30 33 35 34 35 31 31 36 33 33 37 39 43 43 41 45 50 54 58 62 65 67 68 70 72 73 74 77 82 87 90 94 94 93 90 87
19 20 22 22 23 25 27 27 30 35 37 37 37 34 32 36 40 41 45 47 46 47 48 52 56 60 64 66 67 69 70 71 74 78 83 84 85 87 90 95 97 93 87 81
22 23 26 27 27 27 27 29 35 39 40 42 33 39 31 38 39 43 44 45 48 49 56 61 60 63 66 68 69 70 72 75 80 84 83 84 84 84 92 98 96 87 76 66
27 28 32 32 32 32 28 32 35 39 38 40 38 39 40 43 45 48 45 49 52 58 60 61 63 66 66 69 70 72 76 80 81 79 81 84 90 100 99 97 86 73 56 42
33 36 36 34 39 39 32 33 38 37 35 37 41 42 43 45 46 46 46 55 56 58 61 62 64 68 69 71 73 75 76 71 72 77 90 95 101 97 94 86 66 51 42 42
43 45 45 39 37 38 28 29 37 38 38 40 43 44 45 44 47 49 50 55 57 62 65 66 66 68 71 72 75 76 78 76 78 87 90 87 89 97 78 61 50 46 44 44
45 47 48 49 43 40 24 32 40 41 42 41 46 46 48 51 52 52 55 59 62 66 68 70 73 77 76 78 78 79 80 83 92 91 89 88 96 79 60 54 50 48 46 46
47 47 47 46 48 46 32 35 40 43 43 45 46 49 52 55 58 57 60 64 69 72 75 77 81 82 83 82 81 80 85 93 93 92 95 94 72 58 53 52 51 49 47 48
46 45 44 44 45 47 37 41 44 47 48 50 52 55 58 60 62 63 67 72 75 78 79 82 82 78 76 83 81 85 87 91 89 94 91 69 56 54 54 52 50 51 53 54
42 40 36 38 42 41 41 44 47 48 53 54 59 62 64 66 68 70 71 70 80 82 83 81 79 78 81 83 83 85 98 94 89 83 64 55 55 56 54 55 57 57 57 58
40 40 35 40 39 38 41 44 48 51 56 59 62 66 70 69 70 74 77 78 82 84 84 80 78 81 83 86 88 91 92 85 74 62 53 56 55 54 57 59 61 61 59 56
35 32 38 41 42 40 46 50 54 58 61 63 65 69 64 66 71 79 82 84 82 81 76 75 80 78 83 86 83 84 81 71 61 53 55 53 55 57 61 62 60 55 52 50
37 36 40 47 43 47 50 52 58 58 63 68 70 73 69 70 78 83 83 83 80 76 74 75 76 82 81 82 81 76 67 57 50 52 52 53 57 60 60 55 52 49 47 44
39 45 48 51 51 55 59 61 62 67 70 73 72 71 74 76 77 79 80 79 76 74 74 78 79 78 79 77 72 65 56 48 48 49 50 54 57 56 50 48 47 45 45 42
44 47 52 55 58 60 64 67 70 75 77 74 73 75 77 77 79 80 79 75 74 76 75 74 75 76 72 69 61 51 44 44 45 46 51 52 52 48 46 44 40 45 44 39

GFSCGP_500_spd_003.txt.gz
Wind_Speed
2 2 2 3 2 1 2 4 5 5 6 9 10 10 11 14 16 16 17 19 19 20 21 25 27 29 32 34 35 37 40 41 42 45 49 49 49 52 50 50 50 51 52 52
1 0 0 1 3 3 4 5 7 7 6 9 11 11 12 14 16 18 19 21 23 25 27 29 31 33 35 34 36 39 40 42 46 49 50 51 52 51 51 52 53 55 55 56
3 4 4 6 7 8 7 8 9 10 11 12 14 15 16 18 19 21 23 25 27 28 30 32 32 34 35 36 40 41 42 46 50 50 53 52 52 53 54 55 56 58 58 57
6 8 9 9 10 12 12 11 11 11 14 15 17 17 17 19 22 22 24 27 28 30 30 30 33 34 35 38 41 43 46 50 51 50 50 51 54 55 56 59 61 62 63 64
10 12 12 13 14 15 16 15 16 15 17 19 18 21 21 24 24 25 27 29 30 27 29 32 34 36 39 41 44 45 48 49 50 51 53 56 58 59 61 64 63 65 66 67
16 18 18 17 16 16 18 19 20 20 20 21 21 24 24 27 28 30 29 28 28 30 33 34 36 40 42 44 46 47 49 50 52 55 58 59 61 63 65 68 70 71 72 71
20 21 20 19 19 18 18 18 20 21 21 22 23 27 27 28 30 30 30 30 31 33 36 38 40 42 43 43 45 47 49 52 54 57 59 62 63 67 69 71 74 77 78 79
13 12 12 13 15 15 16 15 16 19 21 22 25 30 27 28 30 32 33 33 35 36 37 39 41 43 45 47 49 50 52 56 59 61 64 68 71 73 75 77 78 79 82 83
10 10 11 10 11 13 14 16 18 21 24 26 26 28 28 30 32 34 35 37 36 38 40 41 44 46 48 50 51 55 59 63 65 67 71 74 76 77 80 81 82 83 87 89
10 10 11 13 14 16 19 20 23 25 27 28 26 24 30 32 33 33 32 34 36 36 39 42 46 47 49 53 56 60 64 66 69 73 76 78 79 82 82 82 85 89 84 88
14 15 16 18 19 20 21 23 25 27 28 32 33 21 31 32 31 32 31 33 37 39 43 46 48 50 53 57 62 65 68 71 74 77 78 80 82 83 83 87 90 86 87 92
15 16 17 19 20 22 24 26 29 31 32 32 35 29 31 33 33 32 34 39 42 45 48 47 49 52 58 62 65 69 72 75 77 78 79 80 83 87 87 87 85 88 93 100
17 18 21 23 24 25 27 29 30 33 35 35 35 32 31 35 35 38 41 44 47 46 47 50 55 59 62 65 69 72 75 77 78 78 80 82 82 83 87 85 90 95 97 97
21 24 25 27 31 30 32 35 37 39 40 41 33 36 29 35 39 41 43 45 47 50 54 57 58 62 65 67 70 72 74 76 79 78 80 81 86 86 85 91 94 96 95 82
31 32 33 35 36 35 32 34 37 39 39 40 36 36 39 40 42 44 43 47 51 53 56 59 63 67 68 69 72 75 78 80 79 76 78 84 85 87 91 96 100 85 69 54
38 41 43 41 41 38 28 31 34 37 37 37 40 40 42 44 45 46 48 52 53 57 61 65 68 71 72 73 77 80 80 80 78 76 83 85 88 90 96 98 77 58 50 50
42 45 47 43 41 37 29 30 35 36 35 39 42 43 44 44 46 48 51 55 60 64 68 71 71 75 78 79 82 81 82 82 80 80 84 87 91 91 86 68 57 53 53 52
44 47 47 46 43 38 26 33 36 36 35 38 40 41 44 45 49 54 57 63 69 72 72 72 74 75 79 84 83 84 84 81 81 82 86 90 85 75 67 57 55 55 52 52
47 47 46 45 46 42 26 30 32 35 35 38 39 41 44 51 56 61 65 70 74 75 75 74 65 75 88 86 85 81 79 80 86 85 88 82 70 60 53 55 54 54 56 58
44 42 40 42 43 40 32 36 38 40 40 45 44 49 55 60 65 70 73 77 77 76 77 76 77 89 90 86 82 79 78 82 85 83 77 65 55 51 52 53 55 57 60 61
40 41 37 37 38 33 34 37 40 44 48 51 54 58 62 65 70 74 76 76 74 75 76 77 86 87 84 79 77 80 80 78 80 73 66 55 50 50 52 54 58 60 59 56
39 41 35 36 34 35 38 41 45 47 50 53 57 60 65 70 74 77 76 74 73 77 80 82 80 78 74 74 77 77 78 76 70 64 51 48 48 50 53 56 58 57 55 51
37 35 37 40 36 40 42 45 48 50 55 57 61 65 69 74 76 77 77 78 77 77 77 77 74 70 74 76 75 75 73 68 63 52 46 46 47 50 53 55 54 52 49 46
36 33 39 43 39 44 47 50 52 55 60 62 66 71 74 76 77 77 78 78 79 79 77 74 72 75 76 76 75 72 64 59 52 43 43 44 47 48 51 52 51 49 49 45
40 40 42 43 44 48 48 53 57 60 61 66 71 75 76 77 80 81 81 82 83 81 77 76 78 78 75 74 69 63 58 53 41 40 40 43 44 46 49 49 48 47 44 41
44 42 45 49 51 52 55 58 62 67 71 75 76 75 78 79 80 82 82 82 79 78 78 79 77 77 74 70 65 58 50 40 37 36 39 41 41 44 46 46 44 43 43 41

GFSCGP_500_spd_006.txt.gz
Wind_Speed
9 8 9 9 8 8 7 7 8 10 10 9 11 13 12 15 13 13 15 15 16 18 21 23 26 30 32 34 37 40 40 40 43 45 46 48 50 52 52 51 52 52 52 53
6 6 6 6 5 5 4 5 8 9 10 11 11 11 11 13 14 16 16 18 20 23 26 28 31 34 36 37 39 41 42 44 46 49 50 51 53 54 52 52 53 55 56 57
8 9 7 6 6 6 7 8 9 11 12 14 14 15 14 13 15 17 20 22 25 27 29 31 34 36 37 39 41 42 44 47 50 52 54 54 54 54 55 57 58 61 62 64
8 9 8 8 9 10 10 10 11 13 13 14 15 17 15 16 19 21 23 26 29 30 33 35 35 37 39 41 44 44 47 50 51 52 53 53 54 56 59 61 63 65 67 69
9 10 10 12 13 14 14 14 14 15 15 16 16 16 19 21 23 26 28 30 32 33 33 35 37 39 42 44 45 47 48 47 49 52 53 55 57 60 64 66 67 69 71 74
14 16 17 18 18 18 18 17 17 19 19 20 18 19 26 23 26 30 32 32 33 33 36 37 39 42 45 45 45 44 46 48 50 52 54 57 62 66 69 70 71 73 76 78
15 16 17 19 20 20 19 17 18 18 19 20 19 21 24 26 29 30 32 33 34 36 37 38 41 42 42 42 43 46 49 52 53 56 60 64 67 72 74 74 75 78 79 80
9 9 9 9 11 13 13 13 14 17 18 21 21 24 28 28 29 31 33 35 36 36 38 37 39 39 41 45 48 51 52 55 57 60 64 69 71 72 75 77 77 78 80 82
5 7 6 7 8 10 12 14 16 19 21 22 23 24 25 28 30 32 34 35 34 33 35 35 39 42 47 50 51 51 54 57 61 65 67 68 71 74 77 78 79 81 82 83
7 9 10 11 12 14 16 18 20 21 23 24 22 26 27 31 34 33 31 32 34 33 38 42 45 49 50 51 53 55 58 61 63 66 69 72 75 77 79 81 82 81 80 82
10 11 12 13 15 17 19 21 23 26 26 28 29 25 32 36 35 36 34 31 34 37 41 44 46 47 50 53 56 60 62 66 70 72 74 75 78 81 81 82 81 79 82 86
11 13 16 18 21 22 23 26 27 30 33 33 34 30 31 37 37 35 33 35 38 41 45 45 48 51 54 57 60 64 67 68 70 74 76 80 83 83 81 81 78 79 87 88
14 18 20 22 23 26 28 28 30 32 33 32 37 31 36 37 34 35 37 40 44 46 47 50 52 54 58 62 67 71 72 75 76 76 83 87 87 83 83 80 81 85 87 92
20 23 26 29 30 32 31 30 33 33 33 36 30 31 30 35 36 37 40 42 45 47 51 55 58 62 66 70 71 72 74 78 72 74 87 88 83 83 81 83 84 89 91 81
22 25 29 33 34 31 29 30 34 34 34 35 31 30 34 35 37 38 38 42 45 49 54 58 63 68 71 72 73 74 75 74 70 83 95 89 84 83 83 85 85 85 72 62
26 30 34 35 38 32 29 31 32 33 35 35 34 33 33 37 38 40 43 47 52 55 59 65 71 75 77 76 76 77 77 76 84 94 90 86 84 85 86 84 78 67 61 55
31 35 39 41 36 30 27 29 28 26 29 31 33 34 36 38 41 44 48 53 57 62 68 73 76 77 77 72 70 78 82 85 87 88 84 84 84 83 81 70 63 56 53 54
33 39 45 45 40 31 31 29 25 22 24 28 31 32 36 39 44 49 52 58 63 68 72 76 78 77 77 77 78 82 84 84 84 81 81 82 81 75 67 57 52 52 53 55
36 42 48 49 45 33 28 30 26 27 25 29 34 38 40 43 48 54 57 61 67 73 76 77 77 78 78 78 79 80 81 79 77 80 79 78 72 65 55 49 49 51 54 56
39 46 49 49 45 40 34 31 31 32 35 36 38 42 45 50 55 60 65 70 73 76 77 79 80 80 81 81 80 80 77 76 77 76 74 69 64 56 48 48 49 52 55 58
41 49 49 44 41 37 35 37 38 39 42 44 49 51 55 59 63 68 71 75 77 79 80 81 82 81 81 80 79 76 77 77 75 73 68 62 57 48 47 47 50 52 55 55
45 52 47 42 38 38 37 40 42 43 45 48 50 53 59 64 69 72 74 76 79 79 80 80 80 80 79 77 76 77 78 77 73 68 63 57 48 46 44 47 48 51 54 52
45 46 42 43 38 42 42 43 45 49 50 53 56 60 65 70 74 76 77 77 78 80 80 80 80 80 78 78 79 79 76 73 70 65 55 46 42 41 44 45 47 50 52 49
47 44 40 43 40 43 43 44 48 51 55 57 61 65 70 74 76 78 78 79 79 80 82 83 81 80 80 79 77 77 74 73 66 53 42 37 37 39 42 43 47 50 50 45
46 44 43 42 44 45 46 49 52 55 57 61 66 70 74 78 79 79 79 80 82 84 84 82 81 80 78 76 74 75 69 59 46 34 30 33 34 38 39 41 44 48 48 42
43 45 47 47 49 51 54 56 57 59 62 66 71 76 79 79 78 79 80 81 82 82 81 79 76 76 74 74 71 57 47 35 24 24 28 28 33 36 37 40 44 46 44 41

GFSCGP_500_spd_009.txt.gz
Wind_Speed
10 9 9 7 7 9 11 11 12 15 12 11 11 15 14 16 16 15 15 16 18 20 24 26 28 30 33 36 38 41 43 44 46 48 48 50 53 55 55 55 54 54 53 53
8 9 9 9 9 10 11 11 13 12 12 12 13 16 14 16 18 17 18 19 21 24 27 29 30 33 36 39 42 41 46 47 49 50 51 54 56 56 56 56 57 58 58 60
10 9 7 8 9 11 12 12 11 12 11 13 15 20 20 19 19 20 20 23 25 26 29 31 33 37 40 42 45 47 49 49 51 53 54 57 57 57 57 59 59 60 64 67
9 9 10 11 12 12 13 13 13 13 12 9 11 10 26 22 21 23 24 25 26 30 32 34 36 40 43 45 45 47 49 51 53 54 56 55 56 57 59 61 62 64 68 70
8 9 11 13 14 14 16 15 16 16 16 16 16 15 30 30 27 25 27 28 30 33 35 37 41 43 44 44 47 50 51 51 50 51 53 56 56 58 59 66 66 63 70 72
11 12 15 17 19 19 19 19 18 18 18 19 20 15 17 26 24 29 30 33 34 36 38 40 42 45 45 46 48 48 47 48 51 54 55 57 57 56 59 67 69 71 72 75
11 13 13 14 15 16 17 17 16 16 16 13 16 16 27 27 29 33 33 34 36 38 40 42 42 44 43 42 43 43 48 52 56 56 57 59 61 64 66 69 72 74 75 76
7 7 8 7 7 7 8 9 11 13 15 14 21 19 29 29 31 32 34 36 38 39 39 38 37 38 38 42 46 49 53 54 57 58 60 64 68 70 71 73 75 74 75 78
3 4 5 7 8 9 10 11 13 16 18 20 20 27 30 32 32 31 34 35 34 35 34 33 35 42 42 46 50 50 52 55 58 61 64 67 70 72 75 77 78 80 82 84
2 5 7 9 10 12 14 16 17 18 22 23 14 21 25 33 38 38 34 34 32 33 35 38 40 42 46 48 50 54 55 58 63 68 72 73 74 74 77 80 80 84 84 92
4 6 7 9 11 14 15 17 19 22 23 25 27 21 32 36 36 34 34 33 34 36 38 43 45 47 48 49 53 58 63 67 71 74 76 76 77 77 79 79 83 88 95 90
5 7 9 13 16 18 20 23 25 25 27 27 29 24 33 31 36 36 32 32 35 36 41 44 46 49 54 57 60 65 70 74 77 78 79 80 82 82 79 82 88 92 89 89
6 8 13 18 23 27 26 26 27 28 29 26 31 24 33 33 35 32 36 36 38 42 43 45 47 52 58 62 67 72 76 78 79 78 79 76 79 80 89 87 87 87 86 84
11 15 17 21 27 33 33 31 33 33 31 30 26 29 24 30 34 33 34 37 39 41 45 49 54 59 64 70 75 77 79 80 79 76 75 77 80 84 86 86 87 85 84 79
15 18 21 21 28 33 33 33 33 33 33 32 24 25 26 28 27 31 35 37 42 45 50 55 60 65 70 74 77 80 81 82 80 79 81 81 82 83 84 84 82 80 73 66
19 21 24 23 30 35 36 35 33 31 29 29 28 24 24 27 29 32 38 40 44 50 55 60 65 71 76 80 83 83 81 80 81 83 83 83 82 81 82 81 78 71 65 57
23 25 27 28 33 39 40 34 31 29 30 25 27 28 30 34 37 41 44 47 52 57 61 68 74 79 82 83 82 82 84 84 86 87 86 83 81 81 79 77 71 63 56 51
28 31 34 35 38 43 43 36 31 29 26 27 30 34 36 39 42 48 50 54 60 64 69 74 78 80 80 81 82 83 84 84 84 84 83 83 81 80 75 69 64 58 51 51
32 35 38 40 43 45 38 34 29 28 28 29 34 37 39 44 48 52 56 61 65 71 76 79 81 82 82 83 84 86 86 85 80 79 79 80 78 74 69 64 58 50 49 50
35 37 39 42 47 47 42 36 31 33 33 36 36 39 44 48 53 56 60 65 69 75 79 83 86 86 85 84 85 85 83 80 78 84 77 75 74 71 63 54 47 46 47 49
38 39 39 44 48 46 41 37 34 36 38 41 43 48 52 57 60 63 68 72 78 82 85 86 86 85 84 84 84 82 81 78 77 78 77 76 72 58 48 42 44 43 46 48
40 40 41 45 47 49 42 40 37 38 40 43 47 52 57 61 64 67 73 77 80 83 84 84 85 84 84 83 83 81 78 75 74 73 72 64 52 42 36 41 40 43 44 48
37 39 41 48 44 41 42 44 44 44 46 51 55 59 62 64 67 71 75 79 81 82 83 83 84 84 84 84 82 80 75 73 73 64 55 43 35 31 37 37 40 41 43 47
36 39 46 49 40 41 41 43 44 48 52 55 58 60 64 67 70 74 77 80 81 81 82 84 84 84 83 80 76 75 74 68 57 47 36 24 25 30 32 37 39 41 43 47
36 43 50 51 44 44 43 48 50 52 55 56 59 62 65 68 71 75 77 79 80 82 83 83 83 81 78 75 72 72 63 50 38 27 20 23 25 27 32 37 39 40 43 45
38 45 51 51 47 45 50 53 57 57 56 59 62 64 66 70 74 77 79 79 81 81 81 81 78 74 70 69 67 58 44 31 24 22 25 24 24 29 35 38 39 39 42 42

GFSCGP_500_spd_015.txt.gz
Wind_Speed
21 22 19 15 6 6 5 13 13 13 2 4 6 12 17 18 14 14 16 18 21 26 27 30 31 29 32 33 38 40 40 43 46 48 49 48 53 54 56 57 55 55 56 58
18 7 10 9 8 8 14 19 16 11 7 9 10 16 18 18 14 19 16 18 22 25 28 30 31 35 33 34 37 42 45 44 48 49 52 53 51 55 55 55 57 60 61 61
9 11 9 7 5 9 13 14 16 12 6 9 10 17 19 17 17 19 17 20 21 23 27 29 32 33 36 40 42 43 45 48 50 51 52 53 53 51 53 56 58 59 62 64
10 9 8 7 5 10 7 8 12 12 10 12 11 17 22 20 21 23 27 26 28 27 27 29 35 38 40 42 43 43 46 47 48 50 49 48 50 52 53 55 58 61 63 67
6 6 6 4 9 11 9 12 13 13 12 15 14 15 20 30 33 27 25 27 27 24 30 34 35 37 38 39 42 44 44 43 43 44 45 49 49 51 55 58 61 66 70 74
7 6 8 9 12 13 16 17 18 18 17 14 13 17 30 31 27 31 32 23 28 41 43 41 40 40 39 38 37 40 41 44 47 48 47 47 49 53 57 62 67 73 76 77
7 7 7 7 8 8 9 10 12 14 14 14 14 22 25 26 32 36 36 38 43 44 44 43 45 46 42 36 36 37 39 41 46 48 51 55 60 65 70 74 77 80 82 82
8 6 4 3 2 2 3 4 5 6 9 7 13 22 20 22 27 32 36 42 42 38 40 42 47 43 39 38 36 38 40 41 43 48 53 58 64 69 74 77 80 82 83 82
5 5 3 0 3 4 6 7 8 8 10 10 18 21 24 25 29 35 37 41 46 36 46 37 37 37 35 36 37 39 43 47 53 57 64 69 74 79 83 85 83 82 80 79
4 2 1 2 4 6 8 10 12 12 12 9 14 26 28 32 31 37 43 41 41 46 36 38 39 38 38 39 42 45 50 56 61 66 71 76 80 83 85 86 82 81 80 81
5 4 4 6 5 6 11 15 19 19 18 16 8 22 29 33 37 39 37 40 39 33 31 32 34 38 40 42 47 52 57 62 66 71 76 80 84 87 86 83 81 80 82 82
7 6 3 2 3 7 11 14 18 21 21 22 21 12 26 27 32 32 28 33 33 29 30 31 35 38 42 47 52 57 61 67 72 76 80 84 87 87 84 83 82 85 86 86
5 3 1 3 3 8 15 19 23 27 27 22 23 20 25 27 28 29 30 29 29 29 33 36 39 43 47 51 56 61 67 72 76 80 85 88 89 89 88 88 89 90 88 81
4 5 7 7 9 12 16 20 24 29 31 28 24 26 25 34 28 25 23 27 33 35 37 40 44 48 53 58 62 67 72 76 81 85 88 89 89 89 88 86 83 81 66 68
7 9 11 11 13 16 20 22 25 27 31 33 30 29 32 29 29 30 29 34 36 38 41 46 50 54 59 63 68 73 76 80 85 88 90 91 90 91 89 85 78 59 62 72
11 13 15 15 17 19 22 25 28 29 31 33 33 29 35 30 28 31 34 36 38 41 45 49 54 58 62 67 72 76 81 85 88 90 92 90 91 89 84 78 70 58 64 68
17 17 18 19 20 23 25 28 31 33 35 37 37 34 31 31 34 35 34 35 40 44 49 53 58 62 68 73 78 81 86 89 90 91 89 90 89 84 75 70 59 54 59 55
21 22 22 23 24 27 30 31 33 35 37 37 38 37 37 37 38 38 38 42 46 51 55 58 63 68 74 78 81 84 87 89 89 89 90 88 83 74 68 59 43 54 48 51
24 26 27 27 29 31 35 35 35 38 38 37 39 40 40 40 41 42 45 49 53 56 59 64 68 72 76 78 82 86 89 88 89 89 90 85 73 66 59 46 36 45 43 42
28 29 30 32 34 37 39 41 42 42 40 41 39 39 39 41 42 45 49 51 54 56 61 65 69 74 77 81 85 89 87 87 88 90 85 75 66 55 42 29 35 38 33 34
32 33 34 36 38 39 41 46 45 43 44 45 43 43 44 44 47 49 52 53 56 62 66 69 73 77 81 84 87 87 87 89 90 85 73 65 53 35 25 27 26 23 30 36
35 37 37 39 41 43 46 48 47 43 46 48 48 48 48 48 49 51 53 57 62 66 68 72 76 80 82 84 87 87 87 89 86 75 64 50 36 28 29 30 26 28 33 38
39 39 40 41 44 44 49 51 51 49 49 47 50 53 53 52 51 54 58 63 66 68 72 75 78 79 81 84 86 86 88 83 76 64 51 38 30 28 31 29 27 30 35 38
41 43 44 47 47 49 53 53 51 51 50 51 53 54 53 53 55 59 63 67 69 72 75 77 78 80 82 83 85 86 84 74 65 54 41 31 28 29 30 29 29 31 36 39
40 44 45 47 46 51 52 51 53 51 50 52 56 55 55 56 58 63 67 69 71 73 75 76 77 79 81 82 83 83 77 65 53 44 35 29 27 29 28 28 29 32 35 38
40 44 45 45 49 49 49 51 50 50 53 56 56 55 56 58 62 66 68 71 71 72 73 75 77 80 80 80 81 79 68 55 46 37 31 29 27 28 27 28 29 32 35 37

GFSCGP_500_spd_018.txt.gz
Wind_Speed
23 24 27 23 20 16 7 6 7 6 3 4 10 16 13 9 6 9 11 15 19 20 24 26 26 29 31 27 29 35 37 42 49 50 50 45 41 41 47 51 48 50 50 51
25 25 23 22 18 12 8 11 9 3 5 10 15 15 16 17 16 14 16 16 17 22 24 25 25 26 27 29 35 42 47 49 50 50 43 42 49 51 48 48 52 53 55 58
19 19 20 16 12 12 14 18 16 14 9 12 14 14 14 17 20 18 15 15 18 21 21 22 23 25 31 36 41 43 46 48 49 51 52 53 51 48 50 54 55 57 60 63
14 14 12 9 8 7 8 14 17 14 13 15 16 18 20 21 22 19 16 20 20 22 25 22 23 28 35 39 41 43 46 49 50 50 49 46 46 49 51 53 56 60 63 66
12 12 11 11 10 9 11 14 16 17 16 15 18 22 27 26 25 22 21 16 16 22 26 25 31 36 35 39 39 42 43 46 45 44 43 45 47 49 49 53 57 62 67 71
13 11 10 10 10 11 12 14 16 18 18 18 21 24 30 28 25 24 22 26 27 31 30 31 40 40 42 41 46 45 45 42 42 42 42 43 44 49 54 59 64 69 73 78
12 10 9 9 10 10 9 10 11 13 14 19 21 23 30 29 31 26 28 30 36 37 34 35 35 42 43 41 36 35 37 38 40 39 41 46 51 57 63 68 72 78 84 86
12 10 9 8 5 3 3 2 3 5 6 11 15 19 23 28 30 33 36 32 31 36 35 36 43 47 41 33 28 29 31 32 36 42 48 53 60 65 70 74 79 83 87 90
10 9 7 5 4 2 1 2 2 4 7 12 17 21 26 28 30 34 33 31 31 39 44 45 39 39 35 32 31 33 37 41 45 51 57 63 68 72 77 80 84 87 89 90
11 8 6 6 6 4 3 6 8 8 6 11 15 19 23 26 31 33 37 38 42 45 39 31 32 34 34 34 37 41 45 50 54 59 63 68 73 77 81 86 88 89 87 86
10 10 9 8 6 3 3 4 8 11 13 13 17 18 21 26 29 30 32 33 34 31 30 34 39 38 39 41 43 47 52 56 61 64 69 73 78 81 85 88 89 89 90 92
10 10 10 7 4 3 2 4 7 10 15 17 17 21 25 26 29 30 31 28 24 24 30 35 37 38 40 43 47 51 55 59 63 68 73 77 81 85 89 92 93 93 92 92
12 10 6 5 7 6 5 8 11 14 18 20 21 23 26 25 25 26 27 26 25 28 33 37 39 40 43 46 50 54 59 63 68 73 77 82 86 90 92 92 92 93 94 88
12 9 8 7 8 9 11 16 16 18 20 20 22 21 24 26 25 25 26 28 31 34 37 40 41 43 46 50 54 58 63 67 72 77 82 85 90 92 94 94 94 91 85 77
11 10 10 9 11 13 15 17 20 22 24 24 25 27 24 22 24 27 29 31 33 35 38 40 43 48 51 54 58 63 68 72 76 80 84 89 93 94 94 95 93 86 77 71
15 13 13 14 16 16 17 19 22 24 26 28 31 31 31 32 32 32 31 32 34 37 41 44 48 52 54 58 63 67 71 75 80 84 88 92 92 93 94 92 88 76 65 58
19 18 19 19 21 22 21 24 26 28 30 31 33 34 35 36 35 34 35 36 39 42 46 49 52 54 57 62 67 70 74 79 83 87 89 90 90 92 92 88 75 61 51 41
22 23 23 23 25 26 26 27 30 32 31 34 36 37 39 40 39 39 40 40 43 46 48 52 54 56 61 65 69 74 77 81 84 86 88 88 90 92 89 73 57 43 33 26
27 27 28 28 28 29 29 31 35 35 34 38 39 41 43 44 43 43 43 45 46 48 50 52 56 60 63 67 71 75 79 82 84 87 87 88 91 88 74 55 38 33 34 31
31 31 32 32 33 34 33 35 37 39 38 39 40 43 42 43 44 45 47 49 50 50 53 56 60 63 66 69 73 77 81 83 85 88 87 89 87 75 57 41 31 32 33 31
33 35 36 35 37 37 37 38 42 42 41 45 46 47 46 45 46 47 50 50 50 52 56 59 62 66 70 74 77 80 81 84 86 86 87 87 75 59 45 33 30 32 33 33
36 38 37 38 38 39 40 43 44 44 45 48 48 48 48 48 48 51 52 51 53 56 59 62 67 71 75 78 79 80 82 84 83 85 87 76 61 49 37 30 30 32 32 33
37 38 39 38 38 39 43 45 46 44 48 52 50 49 52 51 51 55 53 54 57 60 63 68 72 75 78 78 78 79 82 81 81 84 79 67 53 42 33 30 31 33 31 33
38 40 40 39 37 40 44 46 47 51 55 53 52 53 53 53 56 57 57 57 61 65 69 73 76 77 76 76 78 81 81 80 82 78 69 58 45 36 31 30 30 32 31 33
38 40 41 44 42 46 45 47 52 55 56 53 53 53 54 56 58 58 58 61 65 69 74 76 77 75 74 76 79 78 79 80 74 69 60 51 37 33 30 30 31 33 33 33
34 38 41 42 42 43 45 50 53 53 52 52 53 54 56 59 59 59 62 66 70 74 76 75 73 73 76 78 77 78 78 72 67 61 52 43 33 31 30 31 31 33 33 32

GFSCGP_500_spd_021.txt.gz
Wind_Speed
31 30 25 25 27 21 20 24 19 17 13 9 8 7 9 8 10 9 8 12 13 14 17 18 21 20 21 19 18 22 28 41 43 45 49 49 45 38 44 48 46 48 47 47
22 24 28 28 22 20 18 24 15 11 6 8 7 9 13 13 11 10 12 13 14 16 19 23 25 23 22 21 25 33 38 44 47 48 49 44 45 49 52 50 48 49 49 51
29 29 28 27 23 19 16 16 12 10 10 10 11 15 15 17 15 13 13 15 15 18 23 24 22 23 27 28 33 37 42 45 50 52 52 53 52 51 49 50 50 50 53 58
22 24 23 19 17 14 13 12 14 15 17 21 19 21 18 17 18 18 17 16 18 21 25 26 27 29 29 35 37 46 50 51 53 56 56 53 50 50 50 51 54 57 61 65
14 13 20 19 16 13 11 11 12 13 17 22 27 26 23 22 22 22 21 22 23 22 24 26 32 33 35 41 45 47 50 54 54 48 46 44 45 47 50 52 56 59 63 67
17 15 15 15 13 11 10 11 15 16 19 23 27 28 28 26 25 24 21 22 26 27 27 33 35 33 42 41 41 45 50 49 44 43 43 44 45 47 50 55 60 64 69 74
18 17 15 14 12 12 14 16 18 20 21 25 27 29 29 27 26 27 28 28 29 30 33 32 31 37 41 47 46 46 44 39 37 38 40 43 46 51 56 61 66 72 77 82
16 15 13 11 9 9 8 9 9 10 11 12 14 18 21 23 25 29 30 30 29 28 29 32 30 42 45 44 46 39 34 33 36 39 43 49 54 59 63 67 72 77 82 86
14 12 10 9 8 8 7 6 5 6 7 9 10 12 17 19 23 24 25 26 25 28 34 39 45 43 39 43 36 32 35 38 41 45 50 55 59 63 67 73 78 82 85 89
13 12 11 11 10 8 6 5 2 1 3 6 9 11 13 15 17 18 20 23 25 27 29 32 34 36 37 35 38 40 41 44 48 52 56 60 64 69 73 78 82 85 89 93
14 14 13 12 10 8 7 4 2 3 6 8 10 13 15 16 16 17 20 21 22 26 30 33 35 37 36 40 43 45 47 51 54 58 61 65 70 73 78 82 85 89 93 97
15 15 15 11 9 6 5 5 4 7 10 14 15 15 17 17 18 19 20 21 25 29 32 36 39 42 44 46 47 48 52 56 59 62 65 70 73 77 80 84 88 92 95 99
16 15 14 12 10 9 9 10 10 11 11 12 15 17 18 20 21 24 25 26 27 29 33 37 40 42 44 45 48 52 55 59 60 63 67 71 75 78 82 87 92 95 99 98
17 16 13 12 11 12 13 14 14 15 15 15 19 20 23 24 25 27 30 30 30 32 35 37 40 42 44 47 51 54 57 58 62 66 70 75 79 85 88 91 95 99 99 98
18 16 14 13 14 15 16 17 18 18 19 21 23 22 26 27 28 30 32 32 33 34 36 38 41 44 47 50 54 56 57 61 65 69 75 80 85 88 89 92 96 95 96 95
19 18 17 17 17 19 19 21 24 23 24 25 27 27 28 30 31 34 35 36 38 38 40 42 45 48 50 54 55 57 61 65 69 73 79 84 87 88 90 94 94 93 94 75
23 22 22 22 23 24 22 24 28 28 27 30 32 32 32 34 37 39 39 40 41 43 44 46 48 50 53 54 57 61 65 69 73 78 84 85 86 87 92 92 91 90 75 56
26 27 28 28 29 31 26 28 31 33 30 33 35 36 35 37 40 41 43 44 44 46 46 49 51 53 54 56 60 64 69 73 78 83 86 86 86 89 90 89 89 78 58 44
29 31 33 34 34 36 32 30 34 37 34 36 38 39 39 42 44 45 48 47 48 48 49 53 54 53 55 59 63 68 73 78 83 84 84 85 88 89 89 88 80 61 47 37
32 35 37 38 41 41 36 35 39 41 38 39 41 42 43 44 47 47 48 49 50 50 53 55 54 55 58 62 67 73 77 81 83 82 84 87 89 90 86 80 66 50 40 35
33 37 39 41 43 44 39 40 42 42 42 41 43 44 44 46 49 50 50 51 51 53 56 56 56 58 62 67 73 77 80 83 82 82 86 88 88 85 79 68 55 42 36 34
35 38 38 40 42 44 40 43 44 43 43 45 46 46 47 50 51 51 52 52 54 56 58 57 58 63 68 73 76 79 83 83 81 84 88 88 82 79 69 59 45 36 33 33
38 39 40 40 40 40 43 45 44 45 46 48 46 46 51 53 51 53 53 54 57 59 60 61 64 69 73 76 79 82 81 80 83 86 87 80 75 69 60 50 38 34 32 33
39 40 40 39 37 39 43 45 45 47 48 47 46 52 53 52 53 53 55 57 59 60 62 65 69 71 75 77 81 81 80 83 87 85 78 72 66 61 52 42 36 33 33 34
39 38 38 42 39 43 43 43 45 46 47 48 52 52 52 53 53 55 57 58 60 63 66 69 71 74 76 79 78 79 82 85 82 76 70 65 60 53 46 38 34 32 32 32
33 35 39 39 41 43 43 44 45 46 49 51 51 52 53 54 57 57 58 61 65 69 71 72 74 76 77 76 77 82 84 82 76 70 65 60 54 47 40 34 31 31 30 30

GFSCGP_500_spd_024.txt.gz
Wind_Speed
26 23 17 15 13 14 11 17 16 16 15 15 14 12 12 12 11 12 10 11 11 10 12 14 17 20 21 21 20 17 23 35 38 38 36 45 49 46 51 54 54 51 51 49
24 22 17 13 13 14 15 22 18 20 18 16 15 13 12 12 10 10 12 11 12 13 14 17 21 22 21 19 20 32 38 41 44 45 53 52 52 53 52 49 47 46 45 44
18 22 20 22 22 24 22 23 23 19 14 16 11 10 9 11 10 11 12 14 16 15 18 21 21 23 25 29 34 39 43 44 46 51 52 53 54 48 46 46 44 43 47 52
21 27 27 28 29 26 20 20 27 23 18 17 16 17 15 14 15 16 17 17 19 21 24 23 23 24 25 33 38 36 39 46 48 51 54 57 54 49 45 42 45 50 54 58
19 22 28 29 24 18 16 15 18 16 16 18 19 20 16 16 17 20 22 23 24 26 26 26 26 26 31 36 39 36 43 42 52 51 55 55 50 46 46 49 52 54 57 60
19 15 18 20 18 17 15 15 15 15 16 20 19 22 20 20 22 24 26 27 27 24 24 29 29 33 36 34 39 42 47 57 49 49 50 46 45 46 47 50 55 59 63 67
17 14 14 17 17 16 16 16 16 18 19 22 22 25 23 22 20 21 23 24 25 26 26 26 28 32 41 39 41 46 52 48 47 47 46 45 47 50 53 58 61 64 67 71
15 15 15 16 16 16 16 16 16 14 13 13 15 12 11 13 15 17 18 20 22 23 24 25 25 37 41 41 46 50 47 47 45 45 46 49 51 54 58 60 63 67 70 76
16 15 15 15 15 14 12 11 9 8 8 8 7 4 4 4 5 7 10 12 14 17 19 22 26 31 34 37 41 42 44 44 47 46 46 49 53 57 59 62 66 70 75 79
17 17 15 13 12 11 10 8 5 3 3 2 4 6 8 8 8 10 12 14 17 20 23 26 29 31 34 36 38 40 42 45 45 47 51 55 58 60 63 67 71 76 82 87
16 15 15 14 11 11 10 8 5 4 4 7 8 8 9 11 13 15 16 19 22 25 27 29 31 33 34 36 40 44 47 49 51 54 57 60 61 64 68 72 77 82 88 92
15 16 17 14 14 12 10 9 8 7 9 12 12 11 13 15 16 17 19 22 25 26 29 32 34 37 40 41 44 47 50 53 56 58 60 61 64 69 73 77 82 87 92 92
18 17 17 17 15 12 11 10 12 13 14 15 16 16 19 19 20 22 24 26 29 31 34 37 39 40 42 45 47 50 53 56 58 60 61 64 68 72 76 81 86 91 91 92
18 17 17 16 15 15 14 15 16 17 18 19 21 21 23 22 23 25 26 29 32 35 37 39 40 41 43 46 49 52 55 56 57 59 63 66 71 76 80 85 89 89 91 93
19 19 19 17 16 17 16 18 19 21 22 23 25 26 29 28 28 29 31 34 36 38 39 41 42 43 45 48 51 55 55 56 58 61 65 69 75 79 83 87 89 90 92 97
21 21 21 20 20 21 22 21 22 25 27 28 31 30 32 33 34 34 35 37 40 41 42 43 45 48 49 51 54 56 56 58 60 64 68 74 79 83 87 89 89 90 95 93
22 23 24 25 25 27 26 21 29 30 30 33 34 35 36 35 36 37 38 40 43 44 45 47 49 50 51 53 56 57 58 59 63 67 74 79 82 86 88 89 90 93 91 85
23 26 29 30 30 35 27 29 33 36 37 37 38 40 41 41 41 41 42 43 45 47 47 50 52 52 52 55 58 58 59 62 67 73 77 82 85 87 87 89 93 90 83 74
25 28 32 35 35 38 37 35 37 41 42 41 42 46 45 44 44 43 45 44 48 48 50 53 53 52 54 57 59 59 62 67 72 76 80 83 85 86 89 91 88 82 73 63
26 30 34 37 41 44 42 39 42 45 47 42 46 47 47 47 47 46 46 48 50 52 53 52 52 53 56 58 59 62 67 71 74 79 82 84 85 88 91 88 81 72 63 53
31 34 36 38 42 45 42 43 43 46 46 48 47 48 49 48 49 48 48 51 52 53 53 53 54 56 58 59 62 66 69 74 78 81 82 83 88 91 88 80 72 63 54 45
31 35 36 40 43 45 42 44 44 46 47 48 48 49 49 50 50 50 50 53 54 55 54 55 57 58 60 63 67 70 74 77 80 81 83 88 90 87 81 72 62 54 48 39
36 36 40 41 40 41 43 45 45 46 47 47 48 49 51 52 51 50 53 55 56 58 56 58 60 61 64 67 71 73 76 80 79 81 87 88 87 81 73 63 55 48 42 36
40 41 42 41 38 41 45 46 45 47 47 48 49 50 50 50 51 53 55 56 55 56 59 61 62 64 69 73 76 77 79 77 80 85 87 86 80 72 65 56 49 43 37 34
41 37 35 40 37 41 42 42 43 44 46 47 48 48 49 51 53 53 55 57 58 59 60 61 64 68 73 76 79 79 76 79 84 85 83 77 70 65 57 49 43 38 34 31
31 32 37 40 39 41 39 40 41 42 44 45 47 49 51 52 52 54 55 57 58 59 59 62 67 69 74 78 79 76 79 82 84 81 74 68 65 59 51 43 39 35 31 30

GFSCGP_500_spd_027.txt.gz
Wind_Speed
22 14 15 19 13 9 6 10 11 9 9 12 11 11 12 11 10 9 10 11 12 12 15 15 15 18 19 20 22 20 26 23 41 42 44 43 44 45 46 48 48 47 45 44
24 17 17 18 17 13 12 14 15 15 13 9 10 12 10 8 9 10 11 12 13 16 18 17 17 19 21 22 20 25 30 35 42 39 42 45 44 49 51 49 45 43 42 40
22 21 18 14 11 12 14 17 18 13 14 13 14 16 11 9 6 7 9 11 13 16 19 20 21 22 25 28 28 30 34 40 42 42 45 53 55 59 58 54 50 47 47 48
11 16 18 15 17 18 19 17 18 19 19 20 20 18 14 11 9 11 13 15 16 19 20 19 21 23 26 28 31 34 38 42 42 43 50 53 57 52 53 53 51 50 51 52
15 16 18 21 20 21 18 15 16 19 23 22 20 20 12 11 11 14 16 18 20 20 19 19 23 25 24 26 31 32 38 40 41 49 53 53 48 51 50 52 52 52 54 57
25 18 14 20 23 21 17 18 17 16 18 21 17 19 13 13 17 17 19 19 17 15 17 20 24 26 28 29 31 36 40 41 47 49 49 48 49 50 50 52 53 56 58 61
19 18 12 16 18 20 17 17 17 17 17 18 16 16 12 11 12 13 13 13 14 16 18 21 24 27 28 30 34 38 39 39 42 44 46 48 50 54 53 53 56 59 61 61
18 18 15 14 16 18 18 18 18 18 16 12 11 5 7 8 8 9 9 10 11 13 15 18 20 23 25 27 30 32 35 38 41 44 47 50 51 51 53 56 59 61 62 66
18 17 16 14 15 17 18 17 14 11 8 5 2 2 2 3 2 3 4 6 9 12 15 17 19 22 25 29 32 34 37 40 43 46 49 52 54 56 58 59 60 61 66 70
16 15 14 15 16 16 14 12 10 7 5 3 2 2 3 4 5 7 9 10 12 15 18 20 22 25 28 31 34 38 41 43 46 48 51 55 58 59 60 60 62 65 70 76
17 17 17 18 15 13 12 10 8 6 5 5 5 6 8 8 9 11 12 15 17 19 21 24 27 30 32 34 36 39 42 45 48 50 54 58 59 60 60 62 65 70 76 81
18 18 17 18 17 15 11 11 9 9 9 9 10 9 11 13 14 16 17 19 20 22 25 28 31 34 36 38 42 44 47 49 50 52 56 59 60 60 61 64 69 75 81 86
17 16 16 16 15 14 13 14 12 13 13 14 15 17 18 20 21 22 23 24 26 28 30 33 35 38 40 42 45 47 50 50 51 54 57 59 59 61 64 69 75 80 84 87
16 15 15 16 17 18 16 17 17 17 16 19 18 21 25 25 27 28 28 30 32 33 35 37 38 40 43 45 47 49 50 51 53 57 59 60 60 63 68 74 78 82 86 88
17 16 17 19 20 20 19 19 18 19 22 23 23 25 31 30 32 33 34 36 37 38 39 40 41 43 45 48 50 50 51 53 56 59 60 60 62 67 72 76 81 83 85 89
18 18 20 22 22 22 22 21 20 23 26 28 31 28 36 36 38 37 38 40 41 43 43 44 45 47 48 52 51 52 53 55 57 59 60 61 66 71 75 79 82 84 88 93
18 19 21 23 25 26 27 20 25 29 30 34 35 36 39 40 42 42 43 44 45 45 46 47 48 49 51 53 52 53 55 56 59 59 61 65 69 74 77 81 83 88 91 94
18 20 24 25 27 31 26 27 30 35 37 39 40 42 45 47 46 45 45 46 46 47 49 50 50 52 54 53 54 55 56 59 59 61 65 69 73 77 80 82 87 91 94 86
19 22 25 27 30 32 33 34 35 39 41 43 45 48 50 51 50 48 49 47 48 50 52 53 53 55 55 55 56 56 59 60 62 65 70 74 78 80 81 86 89 93 86 75
21 23 26 28 32 34 33 35 38 42 43 43 46 47 49 50 50 49 48 49 50 53 54 54 54 56 56 57 57 59 61 62 65 70 74 79 81 83 85 87 92 85 76 69
21 25 27 29 33 35 36 37 39 41 46 47 47 47 48 47 48 48 49 51 52 53 53 53 55 56 56 57 60 62 61 64 70 75 77 80 84 85 86 89 85 74 70 63
24 27 28 31 34 38 39 40 42 44 46 47 46 46 45 46 47 49 50 51 51 51 53 54 56 57 57 60 62 61 64 69 75 76 80 81 80 84 88 86 74 70 66 56
29 31 35 35 35 37 42 44 45 45 44 44 45 46 46 46 48 49 49 50 50 53 55 55 56 56 58 61 61 64 68 73 77 79 79 80 83 86 85 75 70 67 59 49
35 38 38 38 35 39 42 44 43 44 43 44 44 45 46 47 48 49 50 52 54 54 53 57 57 60 61 63 66 70 75 78 79 81 81 84 85 82 77 68 68 61 51 42
36 37 36 37 37 40 40 39 40 41 42 43 44 45 46 48 50 52 54 55 56 57 57 60 61 62 62 66 70 74 76 80 85 85 84 85 81 75 68 66 63 52 43 37
28 35 39 39 38 38 38 39 40 41 42 44 46 47 48 50 52 53 54 54 56 58 60 61 58 62 67 72 76 78 77 84 87 84 83 81 76 69 64 61 55 44 37 33